H1 CPF 1 NER 2012 11 6 9 8111 glonass114 H2 0806703 9114 33468 2012 11 6 0 0 0 2012 11 9 23 45 0 900 1 1 0 0 0 H9 10 0 56237 0.00000 0 -21390133.197 985165.958 -13843349.820 10 0 56237 900.00000 0 -22913434.482 714642.589 -11162974.298 10 0 56237 1800.00000 0 -24113607.943 612272.216 -8265494.335 10 0 56237 2700.00000 0 -24953184.606 634670.951 -5207259.086 10 0 56237 3600.00000 0 -25406282.544 732398.688 -2047749.641 10 0 56237 4500.00000 0 -25459643.499 852300.556 1151583.730 10 0 56237 5400.00000 0 -25113157.695 940007.466 4328523.098 10 0 56237 6300.00000 0 -24379854.739 942488.760 7421299.063 10 0 56237 7200.00000 0 -23285361.339 810547.755 10369797.024 10 0 56237 8100.00000 0 -21866849.126 501153.509 13116729.405 10 0 56237 9000.00000 0 -20171517.362 -20490.717 15608750.554 10 0 56237 9900.00000 0 -18254674.892 -779230.480 17797492.342 10 0 56237 10800.00000 0 -16177502.263 -1788667.701 19640500.429 10 0 56237 11700.00000 0 -14004588.113 -3050347.797 21102053.416 10 0 56237 12600.00000 0 -11801343.001 -4553460.981 22153849.525 10 0 56237 13500.00000 0 -9631398.501 -6275070.808 22775548.318 10 0 56237 14400.00000 0 -7554099.519 -8180860.943 22955157.785 10 0 56237 15300.00000 0 -5622193.584 -10226369.484 22689260.097 10 0 56237 16200.00000 0 -3879812.274 -12358660.004 21983072.339 10 0 56237 17100.00000 0 -2360827.478 -14518360.437 20850341.498 10 0 56237 18000.00000 0 -1087649.652 -16641985.560 19313075.967 10 0 56237 18900.00000 0 -70516.638 -18664447.175 17401118.761 10 0 56237 19800.00000 0 692698.694 -20521648.157 15151570.370 10 0 56237 20700.00000 0 1216155.248 -22153052.929 12608072.137 10 0 56237 21600.00000 0 1525200.086 -23504127.767 9819963.480 10 0 56237 22500.00000 0 1655050.789 -24528549.411 6841328.754 10 0 56237 23400.00000 0 1649059.939 -25190089.950 3729951.861 10 0 56237 24300.00000 0 1556635.463 -25464099.159 546198.455 10 0 56237 25200.00000 0 1430905.048 -25338522.166 -2648152.777 10 0 56237 26100.00000 0 1326223.644 -24814409.647 -5791107.100 10 0 56237 27000.00000 0 1295629.746 -23905898.887 -8821655.725 10 0 56237 27900.00000 0 1388358.422 -22639666.126 -11680959.434 10 0 56237 28800.00000 0 1647516.688 -21053872.664 -14313490.637 10 0 56237 29700.00000 0 2108020.124 -19196648.530 -16668111.668 10 0 56237 30600.00000 0 2794878.614 -17124176.686 -18699068.349 10 0 56237 31500.00000 0 3721904.473 -14898457.531 -20366879.477 10 0 56237 32400.00000 0 4890898.526 -12584846.630 -21639105.146 10 0 56237 33300.00000 0 6291349.704 -10249468.014 -22490979.038 10 0 56237 34200.00000 0 7900662.181 -7956610.541 -22905892.481 10 0 56237 35100.00000 0 9684902.019 -5766215.370 -22875720.903 10 0 56237 36000.00000 0 11600033.565 -3731558.766 -22400986.210 10 0 56237 36900.00000 0 13593595.189 -1897226.353 -21490851.665 10 0 56237 37800.00000 0 15606745.509 -297462.743 -20162949.001 10 0 56237 38700.00000 0 17576595.510 1045035.229 -18443040.564 10 0 56237 39600.00000 0 19438729.645 2119831.795 -16364522.557 10 0 56237 40500.00000 0 21129810.814 2928943.016 -13967778.472 10 0 56237 41400.00000 0 22590160.210 3486497.846 -11299394.842 10 0 56237 42300.00000 0 23766203.688 3817884.655 -8411254.372 10 0 56237 43200.00000 0 24612681.682 3958420.216 -5359524.054 10 0 56237 44100.00000 0 25094529.409 3951598.432 -2203558.179 10 0 56237 45000.00000 0 25188347.891 3846993.955 995261.856 10 0 56237 45900.00000 0 24883403.548 3697910.620 4174727.706 10 0 56237 46800.00000 0 24182114.125 3558875.447 7273020.072 10 0 56237 47700.00000 0 23100000.446 3483085.472 10229916.011 10 0 56237 48600.00000 0 21665106.187 3519916.571 12987963.363 10 0 56237 49500.00000 0 19916910.316 3712600.597 15493599.003 10 0 56237 50400.00000 0 17904778.225 4096169.788 17698188.816 10 0 56237 51300.00000 0 15686016.842 4695755.816 19558969.303 10 0 56237 52200.00000 0 13323615.349 5525315.678 21039872.873 10 0 56237 53100.00000 0 10883766.075 6586838.366 22112221.352 10 0 56237 54000.00000 0 8433268.808 7870066.007 22755275.048 10 0 56237 54900.00000 0 6036926.220 9352741.507 22956627.590 10 0 56237 55800.00000 0 3755038.173 11001372.696 22712439.666 10 0 56237 56700.00000 0 1641098.059 12772481.510 22027507.836 10 0 56237 57600.00000 0 -260214.274 14614286.610 20915167.562 10 0 56237 58500.00000 0 -1914660.879 16468749.800 19397032.582 10 0 56237 59400.00000 0 -3299629.106 18273901.540 17502575.652 10 0 56237 60300.00000 0 -4404822.254 19966349.198 15268558.517 10 0 56237 61200.00000 0 -5232430.066 21483863.885 12738321.788 10 0 56237 62100.00000 0 -5796773.277 22767938.276 9960947.936 10 0 56237 63000.00000 0 -6123438.362 23766209.068 6990313.155 10 0 56237 63900.00000 0 -6247939.647 24434642.637 3884046.023 10 0 56237 64800.00000 0 -6213965.942 24739392.308 702412.732 10 0 56237 65700.00000 0 -6071286.211 24658249.392 -2492849.661 10 0 56237 66600.00000 0 -5873403.110 24181626.710 -5639729.347 10 0 56237 67500.00000 0 -5675053.901 23313032.913 -8677142.044 10 0 56237 68400.00000 0 -5529664.744 22069017.090 -11546116.023 10 0 56237 69300.00000 0 -5486866.326 20478585.329 -14190936.697 10 0 56237 70200.00000 0 -5590176.284 18582112.997 -16560228.503 10 0 56237 71100.00000 0 -5874946.865 16429797.543 -18607953.047 10 0 56237 72000.00000 0 -6366665.117 14079715.847 -20294304.103 10 0 56237 72900.00000 0 -7079678.106 11595566.554 -21586482.206 10 0 56237 73800.00000 0 -8016397.875 9044190.891 -22459333.910 10 0 56237 74700.00000 0 -9167020.673 6492974.730 -22895843.332 10 0 56237 75600.00000 0 -10509773.533 4007239.443 -22887466.469 10 0 56237 76500.00000 0 -12011679.131 1647729.569 -22434301.699 10 0 56237 77400.00000 0 -13629808.107 -531698.660 -21545092.853 10 0 56237 78300.00000 0 -15312967.510 -2486092.283 -20237064.476 10 0 56237 79200.00000 0 -17003755.607 -4181036.721 -18535591.919 10 0 56237 80100.00000 0 -18640897.650 -5593843.425 -16473712.155 10 0 56237 81000.00000 0 -20161765.087 -6714241.150 -14091484.298 10 0 56237 81900.00000 0 -21504972.705 -7544542.796 -11435211.771 10 0 56237 82800.00000 0 -22612944.459 -8099281.660 -8556541.061 10 0 56237 83700.00000 0 -23434339.811 -8404333.479 -5511454.547 10 0 56237 84600.00000 0 -23926237.996 -8495562.405 -2359177.177 10 0 56237 85500.00000 0 -24055987.666 -8417049.228 838981.159 10 0 56238 0.00000 0 -23802643.503 -8218978.000 4020824.320 10 0 56238 900.00000 0 -23157928.462 -7955271.866 7124485.980 10 0 56238 1800.00000 0 -22126681.785 -7681078.865 10089637.549 10 0 56238 2700.00000 0 -20726772.085 -7450216.134 12858664.999 10 0 56238 3600.00000 0 -18988480.832 -7312680.565 15377790.347 10 0 56238 4500.00000 0 -16953381.079 -7312332.651 17598115.934 10 0 56238 5400.00000 0 -14672759.064 -7484851.549 19476571.274 10 0 56238 6300.00000 0 -12205644.639 -7856048.094 20976744.429 10 0 56238 7200.00000 0 -9616532.914 -8440606.971 22069582.279 10 0 56238 8100.00000 0 -6972891.877 -9241311.096 22733946.925 10 0 56238 9000.00000 0 -4342559.342 -10248780.854 22957018.272 10 0 56238 9900.00000 0 -1791136.883 -11441739.234 22734535.766 10 0 56238 10800.00000 0 620511.917 -12787791.964 22070875.328 10 0 56238 11700.00000 0 2838556.176 -14244690.315 20978960.467 10 0 56238 12600.00000 0 4818191.282 -15762024.142 19480009.533 10 0 56238 13500.00000 0 6525249.968 -17283274.874 17603124.031 10 0 56238 14400.00000 0 7937365.329 -18748143.148 15384725.676 10 0 56238 15300.00000 0 9044638.747 -20095054.213 12867852.771 10 0 56238 16200.00000 0 9849786.269 -21263736.720 10101329.026 10 0 56238 17100.00000 0 10367758.586 -22197767.260 7138820.381 10 0 56238 18000.00000 0 10624851.579 -22846974.068 4037797.718 10 0 56238 18900.00000 0 10657345.763 -23169599.163 858425.225 10 0 56238 19800.00000 0 10509732.575 -23134127.766 -2337604.336 10 0 56238 20700.00000 0 10232602.882 -22720707.828 -5488264.857 10 0 56238 21600.00000 0 9880287.254 -21922099.671 -8532399.368 10 0 56238 22500.00000 0 9508347.984 -20744114.866 -11410906.430 10 0 56238 23400.00000 0 9171029.104 -19205525.198 -14067887.198 10 0 56238 24300.00000 0 8918772.469 -17337444.579 -16451730.837 10 0 56238 25200.00000 0 8795905.133 -15182208.808 -18516117.191 10 0 56238 26100.00000 0 8838596.061 -12791799.109 -20220917.202 10 0 56238 27000.00000 0 9073168.880 -10225874.311 -21532973.720 10 0 56238 27900.00000 0 9514842.409 -7549492.822 -22426747.661 10 0 56238 28800.00000 0 10166952.781 -4830618.522 -22884816.997 10 0 56238 29700.00000 0 11020690.743 -2137513.559 -22898218.933 10 0 56238 30600.00000 0 12055366.209 463874.260 -22466628.524 10 0 56238 31500.00000 0 13239189.907 2912421.378 -21598369.983 10 0 56238 32400.00000 0 14530540.326 5154132.003 -20310260.115 10 0 56238 33300.00000 0 15879663.629 7144139.916 -18627286.369 10 0 56238 34200.00000 0 17230735.820 8848325.705 -16582125.263 10 0 56238 35100.00000 0 18524201.000 10244482.617 -14214509.969 10 0 56238 36000.00000 0 19699287.598 11322983.010 -11570458.910 10 0 56238 36900.00000 0 20696596.613 12086918.279 -8701380.145 10 0 56238 37800.00000 0 21460652.556 12551707.333 -5663068.931 10 0 56238 38700.00000 0 21942309.072 12744191.231 -2514618.122 10 0 56238 39600.00000 0 22100907.161 12701253.238 682736.817 10 0 56238 40500.00000 0 21906094.266 12468023.835 3866815.092 10 0 56238 41400.00000 0 21339226.826 12095747.819 6975706.089 10 0 56238 42300.00000 0 20394296.578 11639404.910 9948978.578 10 0 56238 43200.00000 0 19078341.125 11155185.639 12728859.406 10 0 56238 44100.00000 0 17411321.130 10697930.267 15261358.245 10 0 56238 45000.00000 0 15425469.137 10318639.714 17497316.163 10 0 56238 45900.00000 0 13164137.181 10062164.160 19393357.705 10 0 56238 46800.00000 0 10680191.288 9965167.107 20912728.327 10 0 56238 47700.00000 0 8034019.843 10054450.744 22026001.422 10 0 56238 48600.00000 0 5291238.606 10345712.991 22711642.031 10 0 56238 49500.00000 0 2520187.424 10842788.281 22956417.129 10 0 56238 50400.00000 0 -210677.843 11537403.736 22755645.335 10 0 56238 51300.00000 0 -2835390.746 12409460.818 22113281.928 10 0 56238 52200.00000 0 -5292969.974 13427830.614 21041838.004 10 0 56238 53100.00000 0 -7529702.916 14551629.521 19562135.624 10 0 56238 54000.00000 0 -9501123.622 15731922.098 17702903.696 10 0 56238 54900.00000 0 -11173604.387 16913780.105 15500222.187 10 0 56238 55800.00000 0 -12525495.986 18038611.745 12996825.056 10 0 56238 56700.00000 0 -13547770.507 19046663.871 10241274.938 10 0 56238 57600.00000 0 -14244141.138 19879592.451 7287025.032 10 0 56238 58500.00000 0 -14630654.943 20482993.507 4191385.954 10 0 56238 59400.00000 0 -14734776.711 20808788.153 1014417.215 10 0 56238 60300.00000 0 -14594003.135 20817361.165 -2182235.467 10 0 56238 61200.00000 0 -14254066.311 20479362.917 -5336534.421 10 0 56238 62100.00000 0 -13766802.756 19777098.123 -8387252.706 10 0 56238 63000.00000 0 -13187778.172 18705442.282 -11275161.839 10 0 56238 63900.00000 0 -12573768.494 17272246.340 -13944181.242 10 0 56238 64800.00000 0 -11980203.744 15498211.442 -16342467.154 10 0 56238 65700.00000 0 -11458682.786 13416237.858 -18423419.760 10 0 56238 66600.00000 0 -11054664.035 11070274.163 -20146589.006 10 0 56238 67500.00000 0 -10805429.721 8513713.530 -21478461.595 10 0 56238 68400.00000 0 -10738409.822 5807402.849 -22393114.023 10 0 56238 69300.00000 0 -10869936.630 3017346.603 -22872718.997 10 0 56238 70200.00000 0 -11204482.886 212200.043 -22907895.455 10 0 56238 71100.00000 0 -11734416.114 -2539345.023 -22497895.275 10 0 56238 72000.00000 0 -12440280.158 -5171173.827 -21650622.792 10 0 56238 72900.00000 0 -13291592.770 -7622253.695 -20382486.396 10 0 56238 73800.00000 0 -14248126.370 -9838926.982 -18718084.565 10 0 56238 74700.00000 0 -15261618.635 -11776896.871 -16689731.905 10 0 56238 75600.00000 0 -16277841.348 -13402823.844 -14336833.875 10 0 56238 76500.00000 0 -17238940.507 -14695466.734 -11705121.864 10 0 56238 77400.00000 0 -18085949.045 -15646321.209 -8845763.285 10 0 56238 78300.00000 0 -18761365.820 -16259729.751 -5814363.905 10 0 56238 79200.00000 0 -19211691.543 -16552459.402 -2669882.034 10 0 56238 80100.00000 0 -19389813.831 -16552766.087 526523.818 10 0 56238 81000.00000 0 -19257139.906 -16298986.133 3712690.715 10 0 56238 81900.00000 0 -18785386.009 -15837715.640 6826666.501 10 0 56238 82800.00000 0 -17957947.257 -15221655.844 9807919.897 10 0 56238 83700.00000 0 -16770789.494 -14507216.674 12598521.246 10 0 56238 84600.00000 0 -15232824.939 -13751980.781 15144270.426 10 0 56238 85500.00000 0 -13365755.465 -13012135.948 17395749.627 10 0 56239 0.00000 0 -11203389.726 -12339984.747 19309280.560 10 0 56239 900.00000 0 -8790462.064 -11781636.974 20847768.005 10 0 56239 1800.00000 0 -6181003.193 -11374981.221 21981413.357 10 0 56239 2700.00000 0 -3436328.989 -11148022.146 22688285.715 10 0 56239 3600.00000 0 -622731.606 -11117651.246 22954739.869 10 0 56239 4500.00000 0 2191032.132 -11288903.425 22775673.971 10 0 56239 5400.00000 0 4936351.468 -11654729.504 22154622.666 10 0 56239 6300.00000 0 7547364.264 -12196293.930 21103684.330 10 0 56239 7200.00000 0 9963444.415 -12883784.854 19643284.117 10 0 56239 8100.00000 0 12131472.124 -13677702.483 17801777.449 10 0 56239 9000.00000 0 14007794.025 -14530571.621 15614901.331 10 0 56239 9900.00000 0 15559792.854 -15389006.684 13125083.857 10 0 56239 10800.00000 0 16767002.600 -16196042.664 10380624.758 10 0 56239 11700.00000 0 17621723.695 -16893634.231 7434762.314 10 0 56239 12600.00000 0 18129113.600 -17425218.077 4344644.377 10 0 56239 13500.00000 0 18306749.846 -17738230.543 1170223.008 10 0 56239 14400.00000 0 18183684.671 -17786474.397 -2026906.067 10 0 56239 15300.00000 0 17799031.627 -17532234.727 -5184696.691 10 0 56239 16200.00000 0 17200144.106 -16948054.273 -8241855.056 10 0 56239 17100.00000 0 16440462.898 -16018092.633 -11139028.632 10 0 56239 18000.00000 0 15577123.659 -14739011.137 -13819957.994 10 0 56239 18900.00000 0 14668425.390 -13120345.042 -16232569.130 10 0 56239 19800.00000 0 13771266.696 -11184346.090 -18329985.005 10 0 56239 20700.00000 0 12938657.935 -8965300.692 -20071436.686 10 0 56239 21600.00000 0 12217414.115 -6508350.814 -21423056.500 10 0 56239 22500.00000 0 11646125.687 -3867865.370 -22358537.884 10 0 56239 23400.00000 0 11253492.763 -1105428.764 -22859649.207 10 0 56239 24300.00000 0 11057092.945 1712470.925 -22916591.610 10 0 56239 25200.00000 0 11062634.808 4516959.045 -22528193.814 10 0 56239 26100.00000 0 11263728.712 7239392.985 -21701939.874 10 0 56239 27000.00000 0 11642184.902 9813974.229 -20453828.970 10 0 56239 27900.00000 0 12168826.696 12180245.888 -18808069.446 10 0 56239 28800.00000 0 12804784.816 14285372.181 -16796612.506 10 0 56239 29700.00000 0 13503218.541 16086105.347 -14458534.088 10 0 56239 30600.00000 0 14211391.180 17550358.345 -11839276.442 10 0 56239 31500.00000 0 14873012.121 18658317.947 -8989763.942 10 0 56239 32400.00000 0 15430746.252 19403052.230 -5965410.244 10 0 56239 33300.00000 0 15828784.122 19790587.606 -2825036.275 10 0 56239 34200.00000 0 16015363.493 19839452.997 370279.360 10 0 56239 35100.00000 0 15945134.806 19579711.318 3558394.586 10 0 56239 36000.00000 0 15581269.636 19051520.194 6677318.661 10 0 56239 36900.00000 0 14897222.164 18303283.777 9666423.085 10 0 56239 37800.00000 0 13878068.424 17389474.782 12467624.325 10 0 56239 38700.00000 0 12521366.098 16368219.713 15026514.857 10 0 56239 39600.00000 0 10837498.015 15298749.964 17293420.126 10 0 56239 40500.00000 0 8849484.374 14238826.889 19224360.926 10 0 56239 41400.00000 0 6592271.020 13242249.550 20781902.809 10 0 56239 42300.00000 0 4111523.143 12356550.046 21935876.494 10 0 56239 43200.00000 0 1461974.241 11620972.940 22663956.109 10 0 56239 44100.00000 0 -1294601.443 11064823.102 22952084.859 10 0 56239 45000.00000 0 -4091709.262 10706250.551 22794740.655 10 0 56239 45900.00000 0 -6860651.696 10551522.436 22195037.310 10 0 56239 46800.00000 0 -9533139.515 10594811.870 21164659.837 10 0 56239 47700.00000 0 -12043889.143 10818511.740 19723635.398 10 0 56239 48600.00000 0 -14333099.573 11194059.771 17899944.386 10 0 56239 49500.00000 0 -16348707.124 11683239.806 15728978.946 10 0 56239 50400.00000 0 -18048325.347 12239904.448 13252859.086 10 0 56239 51300.00000 0 -19400790.425 12812046.515 10519619.138 10 0 56239 52200.00000 0 -20387248.799 13344132.311 7582279.831 10 0 56239 53100.00000 0 -21001742.306 13779598.401 4497823.557 10 0 56239 54000.00000 0 -21251267.074 14063406.569 1326092.194 10 0 56239 54900.00000 0 -21155304.577 14144549.202 -1871371.242 10 0 56239 55800.00000 0 -20744844.897 13978399.080 -5032514.783 10 0 56239 56700.00000 0 -20060943.782 13528803.972 -8095980.372 10 0 56239 57600.00000 0 -19152874.435 12769837.013 -11002293.988 10 0 56239 58500.00000 0 -18075952.016 11687128.147 -13695019.783 10 0 56239 59400.00000 0 -16889122.538 10278719.459 -16121855.738 10 0 56239 60300.00000 0 -15652417.689 8555407.109 -18235649.593 10 0 56239 61200.00000 0 -14424382.624 6540554.077 -19995315.244 10 0 56239 62100.00000 0 -13259584.830 4269380.029 -21366631.980 10 0 56239 63000.00000 0 -12206308.647 1787756.369 -22322911.148 10 0 56239 63900.00000 0 -11304532.206 -849444.673 -22845517.344 10 0 56239 64800.00000 0 -10584271.639 -3580379.592 -22924234.066 10 0 56239 65700.00000 0 -10064361.989 -6338558.609 -22557466.631 10 0 56239 66600.00000 0 -9751726.002 -9055370.420 -21752278.164 10 0 56239 67500.00000 0 -9641161.465 -11662702.636 -20524257.605 10 0 56239 68400.00000 0 -9715656.041 -14095549.611 -18897221.788 10 0 56239 69300.00000 0 -9947216.333 -16294499.549 -16902756.831 10 0 56239 70200.00000 0 -10298176.183 -18207997.638 -14579607.230 10 0 56239 71100.00000 0 -10722928.878 -19794291.099 -11972924.001 10 0 56239 72000.00000 0 -11170009.871 -21022974.998 -9133386.277 10 0 56239 72900.00000 0 -11584441.561 -21876074.481 -6116213.344 10 0 56239 73800.00000 0 -11910240.349 -22348618.405 -2980086.482 10 0 56239 74700.00000 0 -12092979.160 -22448680.807 213997.877 10 0 56239 75600.00000 0 -12082296.038 -22196889.179 3403920.781 10 0 56239 76500.00000 0 -11834241.717 -21625421.141 6527655.173 10 0 56239 77400.00000 0 -11313365.862 -20776532.736 9524477.603 10 0 56239 78300.00000 0 -10494452.854 -19700681.447 12336152.931 10 0 56239 79200.00000 0 -9363832.971 -18454324.024 14908068.456 10 0 56239 80100.00000 0 -7920212.925 -17097482.779 17190294.998 10 0 56239 81000.00000 0 -6174990.127 -15691183.455 19138554.365 10 0 56239 81900.00000 0 -4152036.831 -14294872.803 20715074.664 10 0 56239 82800.00000 0 -1886962.667 -12963924.422 21889317.365 10 0 56239 83700.00000 0 574114.199 -11747337.266 22638562.749 10 0 56239 84600.00000 0 3176236.703 -10685722.703 22948343.228 10 0 56239 85500.00000 0 5857650.377 -9809663.658 22812716.927 10 0 56240 0.00000 0 8552132.610 -9138513.511 22234376.983 10 0 56240 900.00000 0 11191513.960 -8679684.106 21224594.831 10 0 56240 1800.00000 0 13708287.399 -8428451.069 19802999.200 10 0 56240 2700.00000 0 16038198.316 -8368284.687 17997194.699 10 0 56240 3600.00000 0 18122708.961 -8471690.394 15842227.556 10 0 56240 4500.00000 0 19911235.329 -8701523.900 13379908.314 10 0 56240 5400.00000 0 21363064.645 -9012724.793 10658004.230 10 0 56240 6300.00000 0 22448874.301 -9354395.545 7729316.444 10 0 56240 7200.00000 0 23151789.461 -9672138.124 4650659.440 10 0 56240 8100.00000 0 23467935.848 -9910549.608 1481762.214 10 0 56240 9000.00000 0 23406464.920 -10015771.192 -1715887.897 10 0 56240 9900.00000 0 22989050.815 -9937982.764 -4880236.254 10 0 56240 10800.00000 0 22248880.644 -9633737.388 -7949863.719 10 0 56240 11700.00000 0 21229180.525 -9068036.434 -10865177.900 10 0 56240 12600.00000 0 19981339.512 -8216057.032 -13569569.491 10 0 56240 13500.00000 0 18562710.240 -7064458.021 -16010511.217 10 0 56240 14400.00000 0 17034178.655 -5612208.121 -18140578.062 10 0 56240 15300.00000 0 15457604.809 -3870900.145 -19918368.901 10 0 56240 16200.00000 0 13893241.974 -1864536.506 -21309311.801 10 0 56240 17100.00000 0 12397242.100 371206.688 -22286337.448 10 0 56240 18000.00000 0 11019352.031 2790207.759 -22830407.683 10 0 56240 18900.00000 0 9800896.705 5337570.167 -22930888.958 10 0 56240 19800.00000 0 8773133.610 7951667.644 -22585763.334 10 0 56240 20700.00000 0 7956047.169 10566479.769 -21801672.709 10 0 56240 21600.00000 0 7357633.335 13114121.848 -20593795.057 10 0 56240 22500.00000 0 6973704.098 15527464.583 -18985554.560 10 0 56240 23400.00000 0 6788219.841 17742734.899 -17008170.728 10 0 56240 24300.00000 0 6774135.182 19701989.899 -14700054.720 10 0 56240 25200.00000 0 6894722.275 21355360.829 -12106064.088 10 0 56240 26100.00000 0 7105315.245 22662973.320 -9276630.186 10 0 56240 27000.00000 0 7355401.458 23596463.582 -6266775.132 10 0 56240 27900.00000 0 7590970.436 24140027.077 -3135037.549 10 0 56240 28800.00000 0 7757020.183 24290955.879 57671.452 10 0 56240 29700.00000 0 7800113.823 24059642.493 3249259.223 10 0 56240 30600.00000 0 7670877.250 23469050.591 6377665.538 10 0 56240 31500.00000 0 7326331.046 22553675.617 9382074.997 10 0 56240 32400.00000 0 6731956.975 21358039.921 12204103.641 10 0 56240 33300.00000 0 5863410.795 19934786.607 14788936.111 10 0 56240 34200.00000 0 4707808.273 18342453.139 17086390.832 10 0 56240 35100.00000 0 3264529.462 16643018.960 19051892.529 10 0 56240 36000.00000 0 1545506.739 14899330.541 20647333.449 10 0 56240 36900.00000 0 -425016.082 13172512.024 21841807.047 10 0 56240 37800.00000 0 -2611244.099 11519469.752 22612200.625 10 0 56240 38700.00000 0 -4967080.036 9990594.573 22943636.297 10 0 56240 39600.00000 0 -7437809.875 8627757.219 22829752.471 10 0 56240 40500.00000 0 -9962155.989 7462679.461 22272821.193 10 0 56240 41400.00000 0 -12474613.235 6515747.836 21283699.566 10 0 56240 42300.00000 0 -14907971.680 5795318.303 19881616.520 10 0 56240 43200.00000 0 -17195922.076 5297539.590 18093799.132 10 0 56240 44100.00000 0 -19275636.690 5006701.454 15954945.528 10 0 56240 45000.00000 0 -21090218.838 4896092.252 13506554.256 10 0 56240 45900.00000 0 -22590920.068 4929329.018 10796122.677 10 0 56240 46800.00000 0 -23739033.170 5062103.473 7876229.364 10 0 56240 47700.00000 0 -24507382.501 5244270.059 4803517.888 10 0 56240 48600.00000 0 -24881349.776 5422187.591 1637601.310 10 0 56240 49500.00000 0 -24859392.614 5541215.393 -1560091.696 10 0 56240 50400.00000 0 -24453034.418 5548258.264 -4727506.682 10 0 56240 51300.00000 0 -23686326.041 5394252.334 -7803166.193 10 0 56240 52200.00000 0 -22594801.910 5036486.316 -10727362.096 10 0 56240 53100.00000 0 -21223974.348 4440659.480 -13443314.065 10 0 56240 54000.00000 0 -19627429.130 3582588.580 -15898271.788 10 0 56240 54900.00000 0 -17864602.037 2449490.726 -18044539.416 10 0 56240 55800.00000 0 -15998329.449 1040786.960 -19840402.370 10 0 56240 56700.00000 0 -14092275.334 -631608.712 -21250938.620 10 0 56240 57600.00000 0 -12208342.024 -2543528.534 -22248698.844 10 0 56240 58500.00000 0 -10404172.845 -4659310.082 -22814242.279 10 0 56240 59400.00000 0 -8730850.620 -6933045.106 -22936517.975 10 0 56240 60300.00000 0 -7230887.862 -9310267.610 -22613083.912 10 0 56240 61200.00000 0 -5936592.337 -11730012.075 -21850159.506 10 0 56240 62100.00000 0 -4868875.881 -14127157.235 -20662510.130 10 0 56240 63000.00000 0 -4036555.871 -16434958.651 -19073165.365 10 0 56240 63900.00000 0 -3436178.159 -18587665.043 -17112975.923 10 0 56240 64800.00000 0 -3052368.305 -20523109.614 -14820017.273 10 0 56240 65700.00000 0 -2858695.721 -22185168.262 -12238851.054 10 0 56240 66600.00000 0 -2819013.621 -23525981.765 -9419658.385 10 0 56240 67500.00000 0 -2889217.464 -24507848.782 -6417261.784 10 0 56240 68400.00000 0 -3019346.650 -25104710.102 -3290054.877 10 0 56240 69300.00000 0 -3155939.629 -25303161.736 -98861.212 10 0 56240 70200.00000 0 -3244541.649 -25102954.312 3094255.021 10 0 56240 71100.00000 0 -3232257.802 -24516958.001 6227202.469 10 0 56240 72000.00000 0 -3070242.197 -23570594.858 9239075.765 10 0 56240 72900.00000 0 -2716016.797 -22300763.032 12071344.034 10 0 56240 73800.00000 0 -2135520.875 -20754298.749 14668991.070 10 0 56240 74700.00000 0 -1304803.679 -18986041.439 16981584.579 10 0 56240 75600.00000 0 -211288.127 -17056583.832 18964253.713 10 0 56240 76500.00000 0 1145448.316 -15029801.828 20578556.149 10 0 56240 77400.00000 0 2753408.981 -12970267.817 21793218.345 10 0 56240 78300.00000 0 4588441.223 -10940655.535 22584735.363 10 0 56240 79200.00000 0 6615017.123 -8999244.413 22937819.435 10 0 56240 80100.00000 0 8787499.633 -7197626.889 22845689.381 10 0 56240 81000.00000 0 11051842.053 -5578713.258 22310196.009 10 0 56240 81900.00000 0 13347650.805 -4175115.977 21341781.620 10 0 56240 82800.00000 0 15610526.363 -3007979.492 19959274.700 10 0 56240 83700.00000 0 17774585.770 -2086302.946 18189523.885 10 0 56240 84600.00000 0 19775062.517 -1406782.650 16066878.065 10 0 56240 85500.00000 0 21550876.272 -954179.635 13632522.427 99